Find Starlink 30407

NORAD ID: 57823 Int'l Des: 2023-138 Owner: SPXS Country: US Constellation: starlink operational
LEOCIRCULAR

当前视图

正在加载3D地球...

About Starlink 30407

Starlink 30407 (NORAD 57823) is a starlink constellation satellite (v2 mini) launched Sep 9, 2023 by SPXS of US. It operates in LEO, CIRCULAR orbit with a mass of 730.00 kg.

关于 Starlink 30407

正在加载描述...

即将过境

Passes for default location (London). Set your location on the main map for personalized predictions.

高度历史

Loading altitude history...

两行轨道根数

1 57823U 23138R 26171.32714317 -.00002600 00000-0 -84979-4 0 9998
2 57823 43.0008 269.1390 0001015 255.5169 104.5570 15.27590961155662
Epoch: Jun 20, 2026 • Age: 11 hours

当前状态

高度 493.7 km
速度 7.62 km/s
星下点 -38.03°S, 22.76°E
发射日期 Sep 9, 2023
运行时间 2.7 years
类型 internet

技术详情

分类 Payload
质量 730.00 kg
干质量 700.00 kg
总质量 730.00 kg
长度 0.30 m
直径 4.10 m
跨度 29.00 m
形状 Box + pan
制造商 SPXS
平台类型 Starlink V2M
阶段状态 In Orbit
所有者/国家 SPXS/US

Most Searched